Previsão horária em Abay (Maktaaralskiy rayon)

Hoje, 29 Setembro, Terça-feira

Tempo Temperatura Precipitação Vento Pressão Humidade
00:00 +18°C° 0 mm 1 m/s 740 mmHg 30%
01:00 +18°C° 0 mm 1 m/s 740 mmHg 31%
02:00 +18°C° 0 mm 1 m/s 740 mmHg 31%
03:00 +16°C° 0 mm 2 m/s 740 mmHg 32%
04:00 +16°C° 0 mm 2 m/s 740 mmHg 33%
05:00 +16°C° 0 mm 2 m/s 740 mmHg 34%
06:00 +16°C° 0 mm 3 m/s 740 mmHg 32%
07:00 +17°C° 0 mm 4 m/s 740 mmHg 31%
08:00 +16°C° 0 mm 5 m/s 741 mmHg 29%
09:00 +18°C° 0 mm 4 m/s 741 mmHg 28%
10:00 +19°C° 0 mm 3 m/s 741 mmHg 27%
11:00 +20°C° 0 mm 3 m/s 741 mmHg 24%
12:00 +21°C° 0 mm 3 m/s 741 mmHg 24%
13:00 +21°C° 0 mm 4 m/s 741 mmHg 25%
14:00 +22°C° 0 mm 4 m/s 741 mmHg 25%
15:00 +21°C° 0 mm 4 m/s 741 mmHg 27%
16:00 +21°C° 0 mm 4 m/s 741 mmHg 29%
17:00 +21°C° 0 mm 5 m/s 741 mmHg 30%
18:00 +19°C° 0 mm 4 m/s 741 mmHg 35%
19:00 +18°C° 0 mm 4 m/s 741 mmHg 41%
20:00 +17°C° 0 mm 4 m/s 741 mmHg 46%
21:00 +15°C° 0 mm 4 m/s 740 mmHg 52%
22:00 +16°C° 0 mm 3 m/s 740 mmHg 57%
23:00 +14°C° 0 mm 3 m/s 740 mmHg 63%

Amanhã, 30 Setembro, Quarta-feira

Tempo Temperatura Precipitação Vento Pressão Humidade
00:00 +14°C° 0 mm 3 m/s 740 mmHg 61%
01:00 +14°C° 0 mm 4 m/s 740 mmHg 58%
02:00 +15°C° 0 mm 4 m/s 740 mmHg 55%
03:00 +15°C° 0 mm 4 m/s 740 mmHg 55%
04:00 +14°C° 0 mm 4 m/s 740 mmHg 54%
05:00 +14°C° 0 mm 5 m/s 741 mmHg 54%
06:00 +14°C° 0 mm 4 m/s 741 mmHg 58%
07:00 +15°C° 0 mm 2 m/s 741 mmHg 62%
08:00 +15°C° 0 mm 1 m/s 742 mmHg 66%
09:00 +16°C° 0 mm 2 m/s 742 mmHg 62%
10:00 +17°C° 0 mm 2 m/s 742 mmHg 57%
11:00 +18°C° 0 mm 2 m/s 742 mmHg 53%
12:00 +19°C° 0 mm 2 m/s 742 mmHg 46%
13:00 +22°C° 0 mm 1 m/s 741 mmHg 39%
14:00 +23°C° 0 mm 1 m/s 741 mmHg 31%
15:00 +23°C° 0 mm 1 m/s 741 mmHg 31%
16:00 +23°C° 0 mm 2 m/s 741 mmHg 31%
17:00 +23°C° 0 mm 2 m/s 741 mmHg 30%
18:00 +20°C° 0 mm 2 m/s 741 mmHg 37%
19:00 +18°C° 0 mm 3 m/s 741 mmHg 43%
20:00 +14°C° 0 mm 3 m/s 741 mmHg 50%
21:00 +14°C° 0 mm 3 m/s 740 mmHg 52%
22:00 +13°C° 0 mm 3 m/s 740 mmHg 53%
23:00 +13°C° 0 mm 3 m/s 740 mmHg 55%

Depois de amanhã, 1 Outubro, Quinta-feira

Tempo Temperatura Precipitação Vento Pressão Humidade
00:00 +13°C° 0 mm 2 m/s 740 mmHg 56%
01:00 +13°C° 0 mm 2 m/s 740 mmHg 58%
02:00 +13°C° 0 mm 2 m/s 740 mmHg 59%
03:00 +12°C° 0 mm 1 m/s 740 mmHg 60%
04:00 +12°C° 0 mm 1 m/s 740 mmHg 62%
05:00 +12°C° 0 mm 1 m/s 740 mmHg 63%
06:00 +13°C° 0 mm 1 m/s 740 mmHg 58%
07:00 +14°C° 0 mm 1 m/s 740 mmHg 52%
08:00 +16°C° 0 mm 1 m/s 741 mmHg 46%
09:00 +19°C° 0 mm 1 m/s 741 mmHg 39%
10:00 +22°C° 0 mm 1 m/s 740 mmHg 32%
11:00 +25°C° 0 mm 1 m/s 740 mmHg 26%
12:00 +25°C° 0 mm 1 m/s 740 mmHg 24%
13:00 +26°C° 0 mm 2 m/s 740 mmHg 22%
14:00 +27°C° 0 mm 3 m/s 739 mmHg 20%
15:00 +26°C° 0 mm 3 m/s 739 mmHg 21%
16:00 +26°C° 0 mm 4 m/s 739 mmHg 21%
17:00 +26°C° 0 mm 4 m/s 739 mmHg 21%
18:00 +22°C° 0 mm 4 m/s 739 mmHg 24%
19:00 +20°C° 0 mm 4 m/s 739 mmHg 27%
20:00 +18°C° 0 mm 3 m/s 739 mmHg 30%
21:00 +17°C° 0 mm 3 m/s 739 mmHg 30%
22:00 +16°C° 0 mm 3 m/s 739 mmHg 30%
23:00 +16°C° 0 mm 3 m/s 739 mmHg 31%

2 Outubro, Sexta-feira

Tempo Temperatura Precipitação Vento Pressão Humidade
00:00 +15°C° 0 mm 2 m/s 739 mmHg 32%
01:00 +14°C° 0 mm 2 m/s 739 mmHg 33%
02:00 +13°C° 0 mm 1 m/s 739 mmHg 34%
03:00 +13°C° 0 mm 1 m/s 739 mmHg 34%
04:00 +13°C° 0 mm 1 m/s 739 mmHg 34%
05:00 +13°C° 0 mm 1 m/s 739 mmHg 35%
06:00 +13°C° 0 mm 0 m/s 740 mmHg 32%
07:00 +14°C° 0 mm 0 m/s 740 mmHg 29%
08:00 +16°C° 0 mm 0 m/s 740 mmHg 27%
09:00 +19°C° 0 mm 0 m/s 740 mmHg 23%
10:00 +23°C° 0 mm 1 m/s 740 mmHg 20%
11:00 +26°C° 0 mm 1 m/s 740 mmHg 16%
12:00 +27°C° 0 mm 1 m/s 740 mmHg 16%
13:00 +27°C° 0 mm 2 m/s 740 mmHg 15%
14:00 +28°C° 0 mm 2 m/s 740 mmHg 15%
15:00 +28°C° 0 mm 2 m/s 740 mmHg 15%
16:00 +27°C° 0 mm 3 m/s 740 mmHg 16%
17:00 +27°C° 0 mm 3 m/s 740 mmHg 16%
18:00 +24°C° 0 mm 3 m/s 740 mmHg 19%
19:00 +21°C° 0 mm 3 m/s 740 mmHg 22%
20:00 +18°C° 0 mm 3 m/s 740 mmHg 25%
21:00 +17°C° 0 mm 3 m/s 740 mmHg 26%
22:00 +16°C° 0 mm 2 m/s 740 mmHg 26%
23:00 +15°C° 0 mm 2 m/s 739 mmHg 27%

3 Outubro, Sábado

Tempo Temperatura Precipitação Vento Pressão Humidade
00:00 +15°C° 0 mm 2 m/s 739 mmHg 28%
01:00 +14°C° 0 mm 1 m/s 739 mmHg 29%
02:00 +13°C° 0 mm 1 m/s 739 mmHg 29%
03:00 +13°C° 0 mm 1 m/s 740 mmHg 30%
04:00 +13°C° 0 mm 1 m/s 740 mmHg 31%
05:00 +12°C° 0 mm 1 m/s 740 mmHg 32%
06:00 +13°C° 0 mm 1 m/s 740 mmHg 30%
07:00 +14°C° 0 mm 1 m/s 740 mmHg 28%
08:00 +16°C° 0 mm 1 m/s 740 mmHg 26%
09:00 +18°C° 0 mm 2 m/s 740 mmHg 22%
10:00 +21°C° 0 mm 2 m/s 740 mmHg 19%
11:00 +25°C° 0 mm 2 m/s 741 mmHg 15%
12:00 +26°C° 0 mm 3 m/s 740 mmHg 14%
13:00 +27°C° 0 mm 4 m/s 740 mmHg 13%
14:00 +28°C° 0 mm 4 m/s 740 mmHg 12%
15:00 +27°C° 0 mm 4 m/s 740 mmHg 13%
16:00 +26°C° 0 mm 4 m/s 740 mmHg 14%
17:00 +26°C° 0 mm 4 m/s 740 mmHg 15%
18:00 +22°C° 0 mm 3 m/s 740 mmHg 17%
19:00 +20°C° 0 mm 3 m/s 740 mmHg 20%
20:00 +18°C° 0 mm 2 m/s 740 mmHg 23%
21:00 +17°C° 0 mm 2 m/s 741 mmHg 24%
22:00 +16°C° 0 mm 2 m/s 741 mmHg 26%
23:00 +15°C° 0 mm 2 m/s 741 mmHg 27%

4 Outubro, Domingo

Tempo Temperatura Precipitação Vento Pressão Humidade
00:00 +14°C° 0 mm 1 m/s 741 mmHg 28%
01:00 +13°C° 0 mm 1 m/s 741 mmHg 29%
02:00 +13°C° 0 mm 1 m/s 741 mmHg 30%
03:00 +12°C° 0 mm 1 m/s 741 mmHg 31%
04:00 +12°C° 0 mm 1 m/s 741 mmHg 32%
05:00 +12°C° 0 mm 1 m/s 741 mmHg 32%
06:00 +13°C° 0 mm 1 m/s 741 mmHg 30%
07:00 +14°C° 0 mm 1 m/s 742 mmHg 27%
08:00 +15°C° 0 mm 0 m/s 742 mmHg 24%
09:00 +20°C° 0 mm 1 m/s 742 mmHg 21%
10:00 +22°C° 0 mm 1 m/s 742 mmHg 17%
11:00 +25°C° 0 mm 1 m/s 742 mmHg 14%
12:00 +26°C° 0 mm 2 m/s 742 mmHg 13%
13:00 +27°C° 0 mm 2 m/s 742 mmHg 12%
14:00 +28°C° 0 mm 2 m/s 742 mmHg 11%
15:00 +28°C° 0 mm 3 m/s 742 mmHg 12%
16:00 +27°C° 0 mm 4 m/s 742 mmHg 13%
17:00 +26°C° 0 mm 4 m/s 742 mmHg 14%
18:00 +23°C° 0 mm 4 m/s 742 mmHg 17%
19:00 +20°C° 0 mm 4 m/s 742 mmHg 20%
20:00 +18°C° 0 mm 4 m/s 742 mmHg 24%
21:00 +17°C° 0 mm 4 m/s 742 mmHg 24%
22:00 +15°C° 0 mm 4 m/s 742 mmHg 25%
23:00 +14°C° 0 mm 3 m/s 742 mmHg 25%
Mostrar mais